When you browse on this site, cookies collect data to enhance your experience and personalize the content and advertising you see.
Visit our Privacy Policy to learn more. By continuing to use the site, you agree to this use of cookies and data.

Stündliche Wetter Leipzig

Heute, 6 Juli, Montag

Zeit Temperatur Niederschläge Wind Luftdruck Luftfeuchtigkeit
00:00 +21°C° 0.1 mm 4 m/S 747 mmHg 79%
01:00 +20°C° 0 mm 4 m/S 747 mmHg 82%
02:00 +19°C° 0.1 mm 4 m/S 747 mmHg 85%
03:00 +18°C° 0.1 mm 4 m/S 747 mmHg 88%
04:00 +17°C° 0.1 mm 4 m/S 747 mmHg 90%
05:00 +16°C° 0 mm 5 m/S 747 mmHg 85%
06:00 +16°C° 0 mm 5 m/S 747 mmHg 79%
07:00 +16°C° 0 mm 5 m/S 748 mmHg 74%
08:00 +17°C° 0 mm 6 m/S 748 mmHg 69%
09:00 +17°C° 0 mm 6 m/S 748 mmHg 63%
10:00 +18°C° 0 mm 7 m/S 748 mmHg 58%
11:00 +18°C° 0.1 mm 7 m/S 748 mmHg 57%
12:00 +20°C° 0.1 mm 7 m/S 748 mmHg 55%
13:00 +20°C° 0.1 mm 8 m/S 748 mmHg 53%
14:00 +20°C° 0.1 mm 8 m/S 748 mmHg 54%
15:00 +20°C° 0.1 mm 8 m/S 749 mmHg 54%
16:00 +20°C° 0.1 mm 8 m/S 749 mmHg 54%
17:00 +18°C° 0.3 mm 7 m/S 749 mmHg 60%
18:00 +17°C° 0.3 mm 6 m/S 750 mmHg 66%
19:00 +16°C° 0.3 mm 5 m/S 750 mmHg 72%
20:00 +15°C° 0 mm 5 m/S 751 mmHg 75%
21:00 +13°C° 0 mm 5 m/S 751 mmHg 79%
22:00 +12°C° 0 mm 4 m/S 752 mmHg 82%
23:00 +12°C° 0 mm 4 m/S 752 mmHg 85%

Morgen, 7 Juli, Dienstag

Zeit Temperatur Niederschläge Wind Luftdruck Luftfeuchtigkeit
00:00 +11°C° 0 mm 4 m/S 752 mmHg 87%
01:00 +10°C° 0 mm 4 m/S 753 mmHg 89%
02:00 +10°C° 0 mm 3 m/S 753 mmHg 91%
03:00 +9°C° 0 mm 3 m/S 753 mmHg 93%
04:00 +9°C° 0 mm 3 m/S 754 mmHg 94%
05:00 +10°C° 0 mm 3 m/S 754 mmHg 90%
06:00 +11°C° 0 mm 4 m/S 754 mmHg 85%
07:00 +12°C° 0 mm 4 m/S 754 mmHg 81%
08:00 +13°C° 0.1 mm 4 m/S 754 mmHg 75%
09:00 +15°C° 0.1 mm 4 m/S 754 mmHg 69%
10:00 +17°C° 0.1 mm 4 m/S 754 mmHg 63%
11:00 +17°C° 0 mm 4 m/S 754 mmHg 61%
12:00 +18°C° 0 mm 4 m/S 754 mmHg 59%
13:00 +17°C° 0 mm 5 m/S 753 mmHg 56%
14:00 +19°C° 0 mm 4 m/S 753 mmHg 55%
15:00 +19°C° 0 mm 4 m/S 753 mmHg 54%
16:00 +20°C° 0 mm 4 m/S 753 mmHg 53%
17:00 +19°C° 0 mm 3 m/S 752 mmHg 57%
18:00 +19°C° 0 mm 3 m/S 752 mmHg 61%
19:00 +18°C° 0 mm 2 m/S 752 mmHg 65%
20:00 +17°C° 0 mm 2 m/S 752 mmHg 67%
21:00 +17°C° 0 mm 3 m/S 752 mmHg 69%
22:00 +16°C° 0 mm 3 m/S 752 mmHg 71%
23:00 +15°C° 0 mm 2 m/S 752 mmHg 74%

übermorgen, 8 Juli, Mittwoch

Zeit Temperatur Niederschläge Wind Luftdruck Luftfeuchtigkeit
00:00 +15°C° 0 mm 2 m/S 751 mmHg 77%
01:00 +14°C° 0 mm 2 m/S 751 mmHg 80%
02:00 +14°C° 0.2 mm 2 m/S 751 mmHg 82%
03:00 +14°C° 0.2 mm 2 m/S 751 mmHg 84%
04:00 +14°C° 0.2 mm 2 m/S 751 mmHg 86%
05:00 +14°C° 0.2 mm 2 m/S 751 mmHg 87%
06:00 +14°C° 0.2 mm 2 m/S 751 mmHg 88%
07:00 +13°C° 0.2 mm 3 m/S 751 mmHg 89%
08:00 +13°C° 0.6 mm 3 m/S 751 mmHg 90%
09:00 +13°C° 0.6 mm 3 m/S 751 mmHg 90%
10:00 +13°C° 0.6 mm 4 m/S 751 mmHg 91%
11:00 +13°C° 0.2 mm 4 m/S 751 mmHg 90%
12:00 +14°C° 0.2 mm 4 m/S 751 mmHg 88%
13:00 +14°C° 0.2 mm 4 m/S 751 mmHg 86%
14:00 +15°C° 0 mm 4 m/S 751 mmHg 83%
15:00 +15°C° 0 mm 4 m/S 752 mmHg 80%
16:00 +17°C° 0 mm 4 m/S 752 mmHg 77%
17:00 +17°C° 0 mm 3 m/S 752 mmHg 78%
18:00 +18°C° 0 mm 3 m/S 752 mmHg 78%
19:00 +18°C° 0 mm 3 m/S 752 mmHg 79%
20:00 +17°C° 0 mm 2 m/S 752 mmHg 83%
21:00 +16°C° 0 mm 2 m/S 752 mmHg 87%
22:00 +14°C° 0 mm 1 m/S 753 mmHg 90%
23:00 +14°C° 0 mm 1 m/S 753 mmHg 91%

9 Juli, Donnerstag

Zeit Temperatur Niederschläge Wind Luftdruck Luftfeuchtigkeit
00:00 +14°C° 0 mm 1 m/S 753 mmHg 91%
01:00 +14°C° 0 mm 1 m/S 753 mmHg 92%
02:00 +14°C° 0 mm 1 m/S 753 mmHg 92%
03:00 +14°C° 0 mm 1 m/S 753 mmHg 93%
04:00 +14°C° 0 mm 2 m/S 753 mmHg 93%
05:00 +15°C° 0.1 mm 2 m/S 753 mmHg 92%
06:00 +15°C° 0.1 mm 2 m/S 753 mmHg 90%
07:00 +15°C° 0.1 mm 2 m/S 753 mmHg 89%
08:00 +16°C° 0.1 mm 2 m/S 753 mmHg 85%
09:00 +17°C° 0.1 mm 2 m/S 753 mmHg 81%
10:00 +18°C° 0.1 mm 2 m/S 754 mmHg 78%
11:00 +20°C° 0.1 mm 2 m/S 753 mmHg 71%
12:00 +21°C° 0.1 mm 2 m/S 753 mmHg 65%
13:00 +22°C° 0.1 mm 3 m/S 753 mmHg 59%
14:00 +22°C° 0 mm 3 m/S 753 mmHg 57%
15:00 +24°C° 0 mm 2 m/S 752 mmHg 56%
16:00 +24°C° 0 mm 2 m/S 752 mmHg 55%
17:00 +24°C° 0 mm 2 m/S 752 mmHg 59%
18:00 +23°C° 0 mm 1 m/S 752 mmHg 63%
19:00 +23°C° 0 mm 1 m/S 752 mmHg 67%
20:00 +21°C° 0 mm 1 m/S 752 mmHg 69%
21:00 +19°C° 0 mm 2 m/S 752 mmHg 71%
22:00 +18°C° 0 mm 2 m/S 752 mmHg 74%
23:00 +17°C° 0 mm 2 m/S 751 mmHg 76%

10 Juli, Freitag

Zeit Temperatur Niederschläge Wind Luftdruck Luftfeuchtigkeit
00:00 +17°C° 0 mm 3 m/S 751 mmHg 78%
01:00 +17°C° 0 mm 3 m/S 751 mmHg 80%
02:00 +17°C° 0 mm 3 m/S 750 mmHg 81%
03:00 +17°C° 0 mm 3 m/S 750 mmHg 82%
04:00 +16°C° 0 mm 3 m/S 750 mmHg 83%
05:00 +18°C° 0 mm 4 m/S 749 mmHg 80%
06:00 +20°C° 0 mm 4 m/S 749 mmHg 76%
07:00 +21°C° 0 mm 4 m/S 749 mmHg 73%
08:00 +23°C° 0 mm 5 m/S 748 mmHg 69%
09:00 +26°C° 0 mm 5 m/S 748 mmHg 64%
10:00 +27°C° 0 mm 5 m/S 748 mmHg 60%
11:00 +28°C° 0.3 mm 6 m/S 748 mmHg 57%
12:00 +29°C° 0.3 mm 6 m/S 747 mmHg 54%
13:00 +29°C° 0.3 mm 6 m/S 747 mmHg 51%
14:00 +29°C° 0.1 mm 6 m/S 747 mmHg 53%
15:00 +28°C° 0.1 mm 7 m/S 747 mmHg 54%
16:00 +28°C° 0.1 mm 7 m/S 747 mmHg 56%
17:00 +24°C° 0.3 mm 6 m/S 747 mmHg 66%
18:00 +22°C° 0.3 mm 5 m/S 747 mmHg 77%
19:00 +19°C° 0.3 mm 4 m/S 747 mmHg 87%
20:00 +18°C° 0.1 mm 4 m/S 748 mmHg 86%
21:00 +18°C° 0.1 mm 4 m/S 749 mmHg 84%
22:00 +17°C° 0.1 mm 4 m/S 750 mmHg 83%
23:00 +14°C° 0 mm 4 m/S 750 mmHg 84%

11 Juli, Samstag

Zeit Temperatur Niederschläge Wind Luftdruck Luftfeuchtigkeit
00:00 +13°C° 0 mm 3 m/S 751 mmHg 86%
01:00 +12°C° 0 mm 3 m/S 751 mmHg 88%
02:00 +11°C° 0 mm 3 m/S 751 mmHg 89%
03:00 +10°C° 0 mm 3 m/S 752 mmHg 91%
04:00 +9°C° 0 mm 3 m/S 752 mmHg 92%
05:00 +10°C° 0 mm 3 m/S 753 mmHg 87%
06:00 +11°C° 0 mm 4 m/S 753 mmHg 81%
07:00 +13°C° 0 mm 5 m/S 753 mmHg 75%
08:00 +14°C° 0 mm 5 m/S 753 mmHg 70%
09:00 +15°C° 0 mm 5 m/S 754 mmHg 64%
10:00 +17°C° 0 mm 5 m/S 754 mmHg 58%
11:00 +17°C° 0 mm 5 m/S 754 mmHg 56%
12:00 +19°C° 0 mm 5 m/S 754 mmHg 53%
13:00 +20°C° 0 mm 5 m/S 754 mmHg 50%
14:00 +20°C° 0 mm 5 m/S 754 mmHg 51%
15:00 +20°C° 0 mm 5 m/S 754 mmHg 52%
16:00 +20°C° 0 mm 5 m/S 754 mmHg 52%
17:00 +19°C° 0.1 mm 4 m/S 755 mmHg 58%
18:00 +18°C° 0.1 mm 4 m/S 755 mmHg 63%
19:00 +17°C° 0.1 mm 3 m/S 755 mmHg 68%
20:00 +16°C° 0 mm 3 m/S 756 mmHg 73%
21:00 +14°C° 0 mm 2 m/S 756 mmHg 77%
22:00 +13°C° 0 mm 1 m/S 757 mmHg 82%
23:00 +12°C° 0 mm 1 m/S 757 mmHg 84%
Mehr zeigen